Regional Weather Roundup
Issued by NWS

Home | Current Version | Previous Version | Graphics & Text | Print | Product List | Glossary Off
Versions: 1 2 3 4 5 6 7 8 9 10 11 12 13 14 15 16 17 18 19 20 21 22 23 24 25 26 27 28 29 30 31 32 33 34 35 36 37 38 39 40 41 42 43 44 45 46 47 48 49 50

000
ASUS43 KFSD 270810
RWRSD

WEATHER ROUNDUP FOR SOUTH DAKOTA
NATIONAL WEATHER SERVICE SIOUX FALLS SD
200 AM CST SAT DEC 27 2014

NOTE: "FAIR" INDICATES FEW OR NO CLOUDS BELOW 12,000 FEET WITH NO
SIGNIFICANT WEATHER AND/OR OBSTRUCTIONS TO VISIBILITY.


SDZ001>005-009-010-012>017-270900-
NORTHWEST AND NORTH CENTRAL SOUTH DAKOTA

CITY           SKY/WX    TMP DP  RH WIND       PRES   REMARKS
BUFFALO          N/A     15  11  83 W8        30.01F WCI   4
FAITH            N/A     11   6  81 NW7       30.12S WCI   0
MOBRIDGE       PTCLDY    -1  -4  87 CALM      30.14F
$$

SDZ012>016-024>037-041>051-057-063-072>074-270900-
SOUTHWEST AND SOUTH CENTRAL SOUTH DAKOTA

CITY           SKY/WX    TMP DP  RH WIND       PRES   REMARKS
RAPID CTY ARPT CLEAR      5   2  87 NW5       30.12F WCI  -4
PIERRE         PTCLDY     6   1  80 CALM      30.16F
CUSTER         PTCLDY     5  -1  76 W3        29.97S
ELLSWORTH AFB  MOCLDY     4   0  86 W6        30.10F WCI  -7
PHILIP         MOCLDY     9   4  80 W10       30.16F WCI  -5
PINE RIDGE     CLOUDY    17  12  80 W3        30.13S
SPEARFISH      CLOUDY    16   7  67 MISG      30.08S
WINNER         CLOUDY    17  12  80 W7        30.16S WCI   8
$$

SDZ004>011-016>023-039-040-270900-
NORTHEAST SOUTH DAKOTA

CITY           SKY/WX    TMP DP  RH WIND       PRES   REMARKS
ABERDEEN       PTCLDY     8   4  83 N5        30.19F WCI   0
WATERTOWN      CLOUDY    15  12  88 N14       30.10F WCI   0
SISSETON         N/A      8   5  87 N15       30.17S WCI  -9
$$

SDZ017-020-022-023-036>040-048>070-270900-
SOUTHEAST SOUTH DAKOTA

CITY           SKY/WX    TMP DP  RH WIND       PRES   REMARKS
SIOUX FALLS    LGT SNOW  21  18  88 N15       30.08S FOG     WCI   8
HURON          CLOUDY    13  10  88 N14       30.17S WCI  -2
CHAMBERLAIN    CLOUDY    15  11  85 NW7       30.17S WCI   5
MITCHELL       LGT SNOW  17  14  88 NW15      30.17S VSB 1   WCI   2
YANKTON        CLOUDY    21  18  86 NW18      30.13S WCI   6
$$

ABBREVIATIONS USED IN REMARKS
   TC - TEMPERATURE IN CELSIUS
  WCI - WIND CHILL INDEX
   HX - HEAT INDEX
  VSB - VISIBILITY



USA.gov is the U.S. government's official web portal to all federal, state and local government web resources and services.